Tracking 30995 objects as of 7-Jul-2025
HD Live streaming from Space Station
objects crossing your sky now

CZ-4C R/B

Track CZ-4C R/B now!
10-day predictions
CZ-4C R/B is classified as:


NORAD ID: 39211
Int'l Code: 2013-037D
Perigee: 431.9 km
Apogee: 543.0 km
Inclination: 98.0 °
Period: 94.2 minutes
Semi major axis: 6858 km
RCS: Unknown
Launch date: July 19, 2013
Source: People's Republic of China (PRC)
Launch site: Taiyaun Space Center, China (TSC)

Note: This is a ROCKET BODY
Your satellite tracking list
Your tracking list is empty




NASA's NSSDC Master Catalog

Two Line Element Set (TLE):
1 39211U 13037D   25187.66563045  .00008561  00000-0  28264-3 0  9993
2 39211  97.9815  79.6592 0080990  53.0577 307.8043 15.28503197658003
Source of the keplerian elements: AFSPC